Location: Austin
(30.3000°N, 97.7500°W)
Time: 12:29:03
(UTC-05:00)

Genesis I - Pass Details

Date: 05 September 2024
Orbit: 412 x 456 km, 64.5° (Epoch: 11 September)

Event Time Altitude Azimuth Distance (km) Brightness Sun altitude
Rises 20:11:09 0° 203° (SSW) 2,361 6.7 -5.7°
Reaches altitude 10° 20:13:12 10° 202° (SSW) 1,508 5.7 -6.2°
Maximum altitude 20:16:32 75° 117° (ESE) 448 2.7 -6.9°
Drops below altitude 10° 20:19:57 10° 31° (NNE) 1,544 5.4 -7.6°
Sets 20:22:04 0° 30° (NNE) 2,425 6.4 -8.1°
